Regional Weather Roundup
Issued by NWS

Home | Current Version | Previous Version | Text Only | Print | Product List | Glossary On
Versions: 1 2 3 4 5 6 7 8 9 10 11 12 13 14 15 16 17 18 19 20 21 22 23 24 25 26 27 28 29 30 31 32 33 34 35 36 37 38 39 40 41 42 43 44 45 46 47 48 49 50
000
ASUS43 KDTX 201610
RWRMI
MICHIGAN HOURLY REGIONAL WEATHER ROUNDUP
NATIONAL WEATHER SERVICE DETROIT/PONTIAC MI
1100 AM EST FRI JAN 20 2017

NOTE: "FAIR" INDICATES FEW OR NO CLOUDS BELOW 12,000 FEET WITH NO
SIGNIFICANT WEATHER AND/OR OBSTRUCTION TO VISIBILITY.

MIZ047>049-052>055-059>063-066>070-074>076-081>083-201700-
SOUTHEAST LOWER MICHIGAN

CITY           SKY/WX    TMP DP  RH WIND       PRES   REMARKS
ADRIAN         FOG       36  36 100 E3        29.66R VSB 3/4
ALMA           LGT RAIN  32  32  99 NE9       29.70F VSB 3/4 WCI  24
ANN ARBOR      CLOUDY    36  36 100 NE5       29.66R FOG     WCI  32
BAD AXE        FOG       33  33 100 E8        29.75R VSB 3/4 WCI  26
CARO           CLOUDY    34  33  96 E3        29.71F FOG
DETROIT CITY   LGT RAIN  35  35 100 E12       29.68R FOG     WCI  27
DETROIT        LGT RAIN  37  36  96 E7        29.68R FOG     WCI  32
FLINT          LGT RAIN  35  33  92 E12       29.68F FOG     WCI  27
GROSSE ILE     CLOUDY    37  36  96 E3        29.66R FOG
HILLSDALE      FOG       34  34 100 E5        29.63S VSB 3/4 WCI  30
HOWELL         DRIZZLE   35  33  94 NE5       29.65S WCI  31

CITY           SKY/WX    TMP DP  RH WIND       PRES   REMARKS
JACKSON        CLOUDY    36  34  92 E6        29.65R FOG     WCI  31
LAMBERTVILLE   FOG       37  35  94 E3        29.66R VSB 3/4
LANSING        LGT RAIN  34  32  92 NE9       29.67S FOG     WCI  27
LAPEER         CLOUDY    34  33  99 E3        29.69F FOG
MASON          DRIZZLE   34  34 100 NE5       29.67R WCI  30
MONROE         CLOUDY    37  37 100 E6        29.66R FOG     WCI  33
MT. CLEMENS    LGT RAIN  35  35 100 NE10      29.66F FOG     WCI  28
PONTIAC        LGT RAIN  34  32  92 E9        29.64S FOG     WCI  27
PORT HOPE        N/A     34  34 100 E12       29.73S WCI  25
PORT HURON     CLOUDY    34  34 100 NE9       29.70F FOG     WCI  26
TRI CITIES     FOG       33  33 100 NE14      29.72F VSB 1/4 WCI  23
MIDLAND        CLOUDY    33  32  97 NE7       29.71F FOG     WCI  27
TROY           LGT RAIN  36  34  93 E10       29.69S WCI  28
SAGINAW HB     CLOUDY    34  32  93 NE7       29.71F FOG     WCI  28
$$
MIZ043>046-050>051-056>058-064>065-071>073-077>080-201700-
SOUTHWEST LOWER MICHIGAN

CITY           SKY/WX    TMP DP  RH WIND       PRES   REMARKS
BATTLE CREEK   CLOUDY    36  35  96 E6        29.66R FOG     WCI  31
BENTON HARBOR  CLOUDY    39  36  89 SE7       29.66R WCI  34
BIG RAPIDS     CLOUDY    33  32  93 E5        29.68F FOG     WCI  29
COLDWATER      CLOUDY    37  37 100 CALM      29.64S FOG
FREMONT        CLOUDY    35  34  99 E8        29.66F FOG     WCI  28
HOLLAND        CLOUDY    37  34  89 E6        29.66R WCI  32
GRAND RAPIDS   LGT RAIN  35  32  88 E10       29.66R FOG     WCI  27
IONIA          MIX PCPN  33  32  99 NE13      29.66F WCI  23
KALAMAZOO      FOG       37  34  89 E5        29.66R VSB 1   WCI  33
LUDINGTON      CLOUDY    38  35  89 NE5       29.68F FOG     WCI  34
MARSHALL       CLOUDY    36  35  98 E3        29.65R FOG
MOUNT PLEASANT CLOUDY    32  32  99 NE3       29.71S FOG
MUSKEGON       CLOUDY    37  35  92 NE10      29.67S FOG     WCI  30
SOUTH HAVEN    CLOUDY    37  37  99 E5        29.66R FOG     WCI  33
$$
MIZ016>042-201700-
NORTHERN LOWER MICHIGAN

CITY           SKY/WX    TMP DP  RH WIND       PRES   REMARKS
ALPENA         FOG       34  33  96 E6        29.78R VSB 1/4 WCI  29
BEAVER ISLAND  FOG       32  32 100 E9        29.76S VSB 1/4 WCI  24
BELLAIRE       CLOUDY    34  32  94 N6        29.72F WCI  29
CADILLAC       CLOUDY    33  32  96 E6        29.68F FOG     WCI  27
CHARLEVOIX     CLOUDY    33  33 100 NE5       29.77F FOG     WCI  28
FRANKFORT      CLOUDY    37  34  89 CALM      29.72R FOG
GAYLORD        CLOUDY    33  29  85 E5        29.71F FOG     WCI  29
GRAYLING       CLOUDY    32  32  99 E7        29.74R FOG     WCI  26
HARBOR SPRINGS CLOUDY    32  32 100 E8        29.76S FOG     WCI  25
HOUGHTON LAKE  CLOUDY    32  31  96 E9        29.71F WCI  24
MANISTEE       LGT RAIN  37  35  92 E7        29.70F WCI  32
OSCODA         FOG       34  34  97 NE6       29.75F VSB 1/4 WCI  29
PELLSTON       CLOUDY    32  30  92 E7        29.76F FOG     WCI  26
ROGERS CITY    CLOUDY    34  33  96 E3        29.79S FOG
TRAVERSE CITY  CLOUDY    36  32  85 VRB3      29.73R FOG
$$
MIZ007>008-015-201700-
EASTERN UPPER MICHIGAN

CITY           SKY/WX    TMP DP  RH WIND       PRES   REMARKS
KINROSS        CLOUDY    33  33 100 E12       29.78F FOG     WCI  24
MACKINAC ISLAN FOG       32  32 100 E10G17    29.77S VSB 1   WCI  24
NEWBERRY       FOG       32  31  97 E6        29.76F VSB 1/4 WCI  26
S. S. MARIE    CLOUDY    34  33  96 SE6       29.78F FOG     WCI  29
MUNISING         N/A     33  31  92 S8        29.75S WCI  26
$$
MIZ004>006-011>014-085-201700-
CENTRAL UPPER MICHIGAN

CITY           SKY/WX    TMP DP  RH WIND       PRES   REMARKS
MANISTIQUE     FOG       32  31  98 E8        29.76R VSB 3/4 WCI  24
ESCANABA       FOG       34  33  96 NE3       29.75S VSB<1/4
SAWYER-GWINN   PTSUNNY   28  28 100 S5        29.72S FOG     WCI  23
$$
MIZ001>003-009>011-084-201700-
WESTERN UPPER MICHIGAN

CITY           SKY/WX    TMP DP  RH WIND       PRES   REMARKS
IRON MOUNTAIN  CLOUDY    32  29  88 SE7       29.71R FOG     WCI  26
HOUGHTON       CLOUDY    29  27  92 CALM      29.70S
COPPER HARBOR    N/A     34  32  92 VRB7      29.71F WCI  28
IRONWOOD       CLOUDY    36  30  79 E6        29.68F WCI  31
$$

ABBREVIATIONS USED IN REMARKS
   TC - TEMPERATURE IN CELSIUS
  WCI - WIND CHILL INDEX
   HX - HEAT INDEX
  VSB - VISIBILITY




USA.gov is the U.S. government's official web portal to all federal, state and local government web resources and services.